Showing default

KUIPER-00092, 64837

Orbit data source: Space-Track

KUIPER-00092, 64837 is a payload satellite owned by Kuiper Systems (US) in LEO that was launched on Wed, 16 Jul 2025 UTC via an FALCON 9 launch vehicle from the Air Force Eastern Test Range (AFETR). Payload-class satellites include a variety of spacecraft equipped with specific instruments for various scientific and technological missions. These include communications satellites like Starlink; space stations such as the ISS; scientific satellites like the Hubble; Earth observation satellites from companies like Planet Labs, Umbra, and HawkEye 360; GPS; miniature CubeSats for education and research; and military/defense satellites.

Loading next visibility...
Identifier
64837, 2025-151X
Orbit
LEO
Country
Flag of USUS
Related business
Manufacturer
Kuiper Systems
Mission
Operational Commercial Communications
Bus & Motor
KUIPER, Unknown motor
Mass
~490 kg wet, ~490 kg dry
Launch date (UTC)
2025-07-16 (11 months ago)
Launch vehicle
FALCON 9
Launch site
Air Force Eastern Test Range (AFETR)
Object type
Payload
Rocket body
Debris
Shape & HBR
Box + 2 Pan, 3.4 m
Radar Cross Section
2.326 m², Large (>1 m²)

Expand to show TLE details & history
Last TLE update: 18 hours ago

TLE from 18 hours ago
0 KUIPER-00092
1 64837U 25151X   26166.45277125  .00000337  00000-0  73239-4 0  9997
2 64837  51.8987 218.2941 0000553  93.1397 266.9629 14.79931104 51139
Epoch: 2026-06-15T10:51Z
TLE epoch observation values (Epoch: 2026-06-15T10:51:59.435Z)
Latitude
0.00003°
Longitude
151.55753°
Altitude
630.309 km
Speed
7.544 km/s
True Right ascension
14h 33m 10s
True Declination
0° 00' 00"
Sunlit
Object was in full shadow at epoch
Visualization orbit readout
Latitude
Unknown
Longitude
Unknown
Altitude
Unknown
Speed
Unknown
Apparent Right ascension
Unknown
Apparent Declination
Unknown
Sunlit
N/A
Visualization observer readout
Local Sidereal Time
15:49:18
Azimuth
Unknown
Elevation
Unknown
Doppler factor
Unknown
Orbital elements
Apogee altitude
630.381 km
Perigee altitude
629.605 km
Semi-major axis
7,008.13 km
Eccentricity
0.00006
Inclination
51.8987°
RAAN
218.2941°
Arg. of periapsis
93.1397°
True anomaly
266.95657°
Mean anomaly
266.9629°
Eccentric anomaly
266.95974°
Mean motion
3.69947 °/min
Orbital period
97.31 mins
BSTAR
0.000073239
Loading maneuver chart data...
Computing Atmospheric mass density...
Loading historical data...
Loading historical data...
Loading historical data...
Loading historical data...
Loading historical data...
Loading historical data...
Loading historical data...

Documentation

Showing up to 5 results
|